Time,TemperatureF,DewpointF,PressureIn,WindDirection,WindDirectionDegrees,WindSpeedMPH,WindSpeedGustMPH,Humidity,HourlyPrecipIn,Conditions,Clouds,dailyrainin,SoftwareType,DateUTC
2013-01-07 00:00:00,44.4,43.1,30.14,NNW,333,0.0,0.0,95,0.00,RA,,0.00,WeatherDisplay:10.37,2013-01-07 08:00:00,
2013-01-07 00:05:00,44.4,43.1,30.14,NNW,333,0.0,0.0,95,0.00,RA,,0.00,WeatherDisplay:10.37,2013-01-07 08:05:00,
2013-01-07 00:10:00,44.4,43.1,30.14,WNW,297,0.0,0.0,95,0.00,OVC,,0.00,WeatherDisplay:10.37,2013-01-07 08:10:00,
2013-01-07 00:15:00,44.4,43.1,30.14,WNW,297,0.0,0.0,95,0.00,OVC,,0.00,WeatherDisplay:10.37,2013-01-07 08:15:00,
2013-01-07 00:20:00,44.4,43.1,30.14,WNW,296,0.0,0.0,95,0.00,OVC,,0.00,WeatherDisplay:10.37,2013-01-07 08:20:00,
2013-01-07 00:25:00,44.4,43.1,30.14,WNW,296,0.0,0.0,95,0.00,OVC,,0.00,WeatherDisplay:10.37,2013-01-07 08:25:00,
2013-01-07 00:30:00,44.4,43.1,30.14,WNW,296,0.0,0.0,95,0.00,OVC,,0.00,WeatherDisplay:10.37,2013-01-07 08:30:00,
2013-01-07 00:35:00,44.5,43.2,30.13,WNW,297,0.0,0.1,95,0.00,OVC,,0.00,WeatherDisplay:10.37,2013-01-07 08:35:00,
2013-01-07 00:40:00,44.5,43.2,30.13,WNW,297,1.1,0.0,95,0.00,OVC,,0.00,WeatherDisplay:10.37,2013-01-07 08:40:00,
2013-01-07 00:45:00,44.4,43.1,30.13,WNW,297,0.0,0.0,95,0.00,OVC,,0.00,WeatherDisplay:10.37,2013-01-07 08:45:00,
2013-01-07 00:50:00,44.3,43.0,30.13,WSW,256,1.1,0.0,95,0.00,OVC,,0.00,WeatherDisplay:10.37,2013-01-07 08:50:00,
2013-01-07 00:55:00,44.3,43.0,30.13,West,269,0.0,0.0,95,0.00,OVC,,0.00,WeatherDisplay:10.37,2013-01-07 08:55:00,
2013-01-07 01:00:00,44.3,43.0,30.14,West,269,0.0,0.0,95,0.00,OVC,,0.00,WeatherDisplay:10.37,2013-01-07 09:00:00,
2013-01-07 01:05:00,44.3,43.0,30.13,WSW,256,1.1,0.0,95,0.00,OVC,,0.00,WeatherDisplay:10.37,2013-01-07 09:05:00,
2013-01-07 01:10:00,44.3,43.0,30.13,NNW,330,0.0,0.0,95,0.00,OVC,,0.00,WeatherDisplay:10.37,2013-01-07 09:10:00,
2013-01-07 01:15:00,44.2,42.9,30.13,West,262,0.0,0.1,95,0.00,OVC,,0.00,WeatherDisplay:10.37,2013-01-07 09:15:00,
2013-01-07 01:20:00,44.1,42.8,30.13,North,350,0.0,0.0,95,0.00,OVC,,0.00,WeatherDisplay:10.37,2013-01-07 09:20:00,
2013-01-07 01:25:00,44.1,42.8,30.13,North,350,0.0,0.0,95,0.00,OVC,,0.00,WeatherDisplay:10.37,2013-01-07 09:25:00,
2013-01-07 01:30:00,44.1,42.8,30.14,North,350,0.0,0.0,95,0.00,OVC,,0.00,WeatherDisplay:10.37,2013-01-07 09:30:00,
2013-01-07 01:35:00,44.0,42.7,30.14,North,350,0.0,0.0,95,0.00,OVC,,0.00,WeatherDisplay:10.37,2013-01-07 09:35:00,
2013-01-07 01:40:00,44.0,42.7,30.14,North,350,0.0,0.0,95,0.00,OVC,,0.00,WeatherDisplay:10.37,2013-01-07 09:40:00,
2013-01-07 01:45:00,44.0,42.7,30.14,North,350,0.0,0.0,95,0.00,OVC,,0.00,WeatherDisplay:10.37,2013-01-07 09:45:00,
2013-01-07 01:50:00,44.0,42.7,30.14,North,350,0.0,0.0,95,0.00,OVC,,0.00,WeatherDisplay:10.37,2013-01-07 09:50:00,
2013-01-07 01:55:00,44.0,42.7,30.14,North,350,0.0,0.0,95,0.00,OVC,,0.00,WeatherDisplay:10.37,2013-01-07 09:55:00,
2013-01-07 02:00:00,44.0,42.7,30.15,North,350,0.0,0.0,95,0.00,OVC,,0.00,WeatherDisplay:10.37,2013-01-07 10:00:00,
2013-01-07 02:05:00,44.0,42.7,30.15,North,350,0.0,0.0,95,0.00,OVC,,0.00,WeatherDisplay:10.37,2013-01-07 10:05:00,
2013-01-07 02:10:00,44.0,42.7,30.15,North,350,0.0,0.0,95,0.00,OVC,,0.00,WeatherDisplay:10.37,2013-01-07 10:10:00,
2013-01-07 02:15:00,44.0,42.7,30.15,North,350,0.0,0.0,95,0.00,OVC,,0.00,WeatherDisplay:10.37,2013-01-07 10:15:00,
2013-01-07 02:20:00,44.0,42.7,30.15,North,350,0.0,0.0,95,0.00,OVC,,0.00,WeatherDisplay:10.37,2013-01-07 10:20:00,
2013-01-07 02:25:00,44.1,42.8,30.15,North,350,0.0,0.0,95,0.00,OVC,,0.00,WeatherDisplay:10.37,2013-01-07 10:25:00,
2013-01-07 02:30:00,44.1,42.8,30.15,North,350,0.0,0.0,95,0.00,OVC,,0.00,WeatherDisplay:10.37,2013-01-07 10:30:00,
2013-01-07 02:35:00,44.1,42.8,30.16,North,350,0.0,0.0,95,0.00,OVC,,0.00,WeatherDisplay:10.37,2013-01-07 10:35:00,
2013-01-07 02:40:00,44.1,42.8,30.16,North,349,1.1,0.0,95,0.00,OVC,,0.00,WeatherDisplay:10.37,2013-01-07 10:40:00,
2013-01-07 02:45:00,44.2,42.9,30.16,North,349,0.0,0.0,95,0.00,OVC,,0.00,WeatherDisplay:10.37,2013-01-07 10:45:00,
2013-01-07 02:50:00,44.2,42.9,30.16,North,349,0.0,0.0,95,0.00,OVC,,0.00,WeatherDisplay:10.37,2013-01-07 10:50:00,
2013-01-07 02:55:00,44.2,42.9,30.16,North,349,0.0,0.0,95,0.00,OVC,,0.00,WeatherDisplay:10.37,2013-01-07 10:55:00,
2013-01-07 03:00:00,44.2,42.9,30.16,North,350,1.0,0.0,95,0.00,OVC,,0.00,WeatherDisplay:10.37,2013-01-07 11:00:00,
2013-01-07 03:05:00,44.2,42.9,30.16,South,175,0.0,0.0,95,0.00,OVC,,0.00,WeatherDisplay:10.37,2013-01-07 11:05:00,
2013-01-07 03:10:00,44.2,42.9,30.16,South,174,0.0,0.0,95,0.00,OVC,,0.00,WeatherDisplay:10.37,2013-01-07 11:10:00,
2013-01-07 03:15:00,44.3,43.0,30.16,SSW,201,0.0,0.0,95,0.00,OVC,,0.00,WeatherDisplay:10.37,2013-01-07 11:15:00,
2013-01-07 03:21:00,44.3,42.7,30.16,SSW,201,0.0,0.0,94,0.00,OVC,,0.00,WeatherDisplay:10.37,2013-01-07 11:21:00,
2013-01-07 03:26:00,44.3,42.7,30.16,SSW,201,0.0,0.0,94,0.00,OVC,,0.00,WeatherDisplay:10.37,2013-01-07 11:26:00,
2013-01-07 03:31:00,44.3,42.7,30.16,SSW,201,0.0,0.0,94,0.00,OVC,,0.00,WeatherDisplay:10.37,2013-01-07 11:31:00,
2013-01-07 03:36:00,44.3,42.7,30.16,SW,226,0.0,0.0,94,0.00,OVC,,0.00,WeatherDisplay:10.37,2013-01-07 11:36:00,
2013-01-07 03:41:00,44.3,42.7,30.16,SW,226,0.0,0.0,94,0.00,OVC,,0.00,WeatherDisplay:10.37,2013-01-07 11:41:00,
2013-01-07 03:46:00,44.3,42.7,30.16,SW,226,0.0,0.0,94,0.00,OVC,,0.00,WeatherDisplay:10.37,2013-01-07 11:46:00,
2013-01-07 03:51:00,44.3,42.7,30.17,SW,226,0.0,0.0,94,0.00,OVC,,0.00,WeatherDisplay:10.37,2013-01-07 11:51:00,
2013-01-07 03:56:00,44.3,42.7,30.17,SW,226,0.0,0.1,94,0.00,OVC,,0.00,WeatherDisplay:10.37,2013-01-07 11:56:00,
2013-01-07 04:01:00,44.3,42.7,30.17,SW,226,0.0,0.0,94,0.00,OVC,,0.00,WeatherDisplay:10.37,2013-01-07 12:01:00,
2013-01-07 04:06:00,44.3,42.7,30.18,SW,226,1.1,1.1,94,0.00,OVC,,0.00,WeatherDisplay:10.37,2013-01-07 12:06:00,
2013-01-07 04:11:00,44.3,42.7,30.17,SW,226,0.0,0.0,94,0.00,OVC,,0.00,WeatherDisplay:10.37,2013-01-07 12:11:00,
2013-01-07 04:16:00,44.3,42.7,30.17,SW,226,0.0,0.0,94,0.00,OVC,,0.00,WeatherDisplay:10.37,2013-01-07 12:16:00,
2013-01-07 04:21:00,44.3,42.7,30.17,SW,226,0.0,0.0,94,0.00,OVC,,0.00,WeatherDisplay:10.37,2013-01-07 12:21:00,
2013-01-07 04:26:00,44.2,42.6,30.18,SW,226,0.0,0.0,94,0.00,OVC,,0.00,WeatherDisplay:10.37,2013-01-07 12:26:00,
2013-01-07 04:31:00,44.2,42.6,30.18,SW,232,0.0,0.0,94,0.00,OVC,,0.00,WeatherDisplay:10.37,2013-01-07 12:31:00,
2013-01-07 04:36:00,44.2,42.6,30.18,SW,232,0.0,0.0,94,0.00,OVC,,0.00,WeatherDisplay:10.37,2013-01-07 12:36:00,
2013-01-07 04:41:00,44.2,42.6,30.19,SW,232,0.0,0.0,94,0.00,OVC,,0.00,WeatherDisplay:10.37,2013-01-07 12:41:00,
2013-01-07 04:46:00,44.2,42.9,30.19,SW,232,0.0,0.0,95,0.00,OVC,,0.00,WeatherDisplay:10.37,2013-01-07 12:46:00,
2013-01-07 04:51:00,44.2,42.9,30.19,SW,232,0.0,0.0,95,0.00,OVC,,0.00,WeatherDisplay:10.37,2013-01-07 12:51:00,
2013-01-07 04:56:00,44.2,42.9,30.20,SW,232,0.0,0.0,95,0.00,OVC,,0.00,WeatherDisplay:10.37,2013-01-07 12:56:00,
2013-01-07 05:01:00,44.2,42.9,30.20,SW,232,0.0,0.0,95,0.00,OVC,,0.00,WeatherDisplay:10.37,2013-01-07 13:01:00,
2013-01-07 05:06:00,44.2,42.9,30.20,SW,232,0.0,0.0,95,0.00,OVC,,0.00,WeatherDisplay:10.37,2013-01-07 13:06:00,
2013-01-07 05:11:00,44.2,42.9,30.20,SW,232,0.0,0.0,95,0.00,OVC,,0.00,WeatherDisplay:10.37,2013-01-07 13:11:00,
2013-01-07 05:16:00,44.3,43.0,30.20,SW,232,0.0,0.0,95,0.00,OVC,,0.00,WeatherDisplay:10.37,2013-01-07 13:16:00,
2013-01-07 05:21:00,44.3,43.0,30.20,SW,232,0.0,0.0,95,0.00,OVC,,0.00,WeatherDisplay:10.37,2013-01-07 13:21:00,
2013-01-07 05:26:00,44.2,42.6,30.19,SW,232,0.0,0.0,94,0.00,OVC,,0.00,WeatherDisplay:10.37,2013-01-07 13:26:00,
2013-01-07 05:31:00,44.2,42.9,30.19,SW,232,0.0,0.0,95,0.00,OVC,,0.00,WeatherDisplay:10.37,2013-01-07 13:31:00,
2013-01-07 05:36:00,44.2,42.9,30.20,SW,232,1.1,1.1,95,0.00,OVC,,0.00,WeatherDisplay:10.37,2013-01-07 13:36:00,
2013-01-07 05:41:00,44.2,42.9,30.19,SW,232,0.0,0.0,95,0.00,OVC,,0.00,WeatherDisplay:10.37,2013-01-07 13:41:00,
2013-01-07 05:46:00,44.2,42.9,30.19,SW,232,1.1,1.1,95,0.00,OVC,,0.00,WeatherDisplay:10.37,2013-01-07 13:46:00,
2013-01-07 05:51:00,44.1,42.8,30.19,SW,232,0.0,0.0,95,0.00,OVC,,0.00,WeatherDisplay:10.37,2013-01-07 13:51:00,
2013-01-07 05:56:00,44.1,42.8,30.20,ESE,108,0.0,0.0,95,0.00,OVC,,0.00,WeatherDisplay:10.37,2013-01-07 13:56:00,
2013-01-07 06:01:00,44.1,42.8,30.20,ESE,108,0.0,0.0,95,0.00,OVC,,0.00,WeatherDisplay:10.37,2013-01-07 14:01:00,
2013-01-07 06:06:00,44.1,42.8,30.20,ESE,109,0.0,0.0,95,0.00,OVC,,0.00,WeatherDisplay:10.37,2013-01-07 14:06:00,
2013-01-07 06:11:00,44.1,42.8,30.20,ESE,108,0.0,0.0,95,0.00,OVC,,0.00,WeatherDisplay:10.37,2013-01-07 14:11:00,
2013-01-07 06:16:00,44.1,42.8,30.20,ESE,108,0.0,0.0,95,0.00,OVC,,0.00,WeatherDisplay:10.37,2013-01-07 14:16:00,
2013-01-07 06:21:00,44.1,42.8,30.20,ESE,108,0.0,0.0,95,0.00,OVC,,0.00,WeatherDisplay:10.37,2013-01-07 14:21:00,
2013-01-07 06:26:00,44.1,42.8,30.21,ESE,108,0.0,0.0,95,0.00,OVC,,0.00,WeatherDisplay:10.37,2013-01-07 14:26:00,
2013-01-07 06:31:00,44.1,42.8,30.22,West,267,0.0,0.0,95,0.00,OVC,,0.00,WeatherDisplay:10.37,2013-01-07 14:31:00,
2013-01-07 06:36:00,44.1,42.8,30.22,SW,219,1.0,1.0,95,0.00,OVC,,0.00,WeatherDisplay:10.37,2013-01-07 14:36:00,
2013-01-07 06:41:00,44.2,42.9,30.22,SW,218,1.1,1.1,95,0.00,OVC,,0.00,WeatherDisplay:10.37,2013-01-07 14:41:00,
2013-01-07 06:46:00,44.2,42.9,30.22,SW,218,0.0,0.0,95,0.00,OVC,,0.00,WeatherDisplay:10.37,2013-01-07 14:46:00,
2013-01-07 06:51:00,44.2,42.9,30.22,SW,218,0.0,0.0,95,0.00,OVC,,0.00,WeatherDisplay:10.37,2013-01-07 14:51:00,
2013-01-07 06:56:00,44.2,42.9,30.23,SW,218,0.0,0.0,95,0.00,OVC,,0.00,WeatherDisplay:10.37,2013-01-07 14:56:00,
2013-01-07 07:01:00,44.2,42.9,30.23,SW,218,0.0,0.0,95,0.00,OVC,,0.00,WeatherDisplay:10.37,2013-01-07 15:01:00,
2013-01-07 07:06:00,44.2,42.9,30.23,SW,218,0.0,0.0,95,0.00,OVC,,0.00,WeatherDisplay:10.37,2013-01-07 15:06:00,
2013-01-07 07:11:00,44.2,42.6,30.23,SW,219,0.0,0.0,94,0.00,OVC,,0.00,WeatherDisplay:10.37,2013-01-07 15:11:00,
2013-01-07 07:16:00,44.2,42.9,30.23,SW,218,0.0,0.0,95,0.00,OVC,,0.00,WeatherDisplay:10.37,2013-01-07 15:16:00,
2013-01-07 07:21:00,44.3,43.0,30.23,SW,218,0.0,0.0,95,0.00,OVC,,0.00,WeatherDisplay:10.37,2013-01-07 15:21:00,
2013-01-07 07:26:00,44.3,43.0,30.23,SW,218,0.0,0.0,95,0.00,OVC,,0.00,WeatherDisplay:10.37,2013-01-07 15:26:00,
2013-01-07 07:31:00,44.4,43.1,30.24,SW,218,0.0,0.0,95,0.00,OVC,,0.00,WeatherDisplay:10.37,2013-01-07 15:31:00,
2013-01-07 07:36:00,44.4,43.1,30.24,SW,218,1.1,0.0,95,0.00,OVC,,0.00,WeatherDisplay:10.37,2013-01-07 15:36:00,
2013-01-07 07:41:00,44.4,43.1,30.24,SW,218,0.0,0.0,95,0.00,OVC,,0.00,WeatherDisplay:10.37,2013-01-07 15:41:00,
2013-01-07 07:46:00,44.3,43.0,30.24,SW,218,0.0,0.0,95,0.00,OVC,,0.00,WeatherDisplay:10.37,2013-01-07 15:46:00,
2013-01-07 07:51:00,44.4,43.1,30.24,SW,219,1.1,0.0,95,0.00,OVC,,0.00,WeatherDisplay:10.37,2013-01-07 15:51:00,
2013-01-07 07:56:00,44.3,43.0,30.24,South,191,0.0,0.1,95,0.00,OVC,,0.00,WeatherDisplay:10.37,2013-01-07 15:56:00,
2013-01-07 08:01:00,44.4,43.1,30.25,South,191,0.0,0.0,95,0.00,OVC,,0.00,WeatherDisplay:10.37,2013-01-07 16:01:00,
2013-01-07 08:06:00,44.5,43.2,30.24,South,191,0.0,0.0,95,0.00,OVC,,0.00,WeatherDisplay:10.37,2013-01-07 16:06:00,
2013-01-07 08:11:00,44.5,43.2,30.25,SSW,192,0.0,0.0,95,0.00,OVC,,0.00,WeatherDisplay:10.37,2013-01-07 16:11:00,
2013-01-07 08:16:00,44.6,43.3,30.25,South,191,0.0,0.0,95,0.00,OVC,,0.00,WeatherDisplay:10.37,2013-01-07 16:16:00,
2013-01-07 08:21:00,44.7,43.4,30.25,South,191,0.0,0.0,95,0.00,OVC,,0.00,WeatherDisplay:10.37,2013-01-07 16:21:00,
2013-01-07 08:26:00,44.7,43.1,30.25,SSE,163,0.0,0.0,94,0.00,OVC,,0.00,WeatherDisplay:10.37,2013-01-07 16:26:00,
2013-01-07 08:31:00,44.8,43.2,30.25,SSE,163,0.0,0.0,94,0.00,OVC,,0.00,WeatherDisplay:10.37,2013-01-07 16:31:00,
2013-01-07 08:36:00,44.9,43.3,30.25,SSE,160,0.0,0.0,94,0.00,OVC,,0.00,WeatherDisplay:10.37,2013-01-07 16:36:00,
2013-01-07 08:41:00,44.9,43.3,30.26,SSE,163,0.0,0.0,94,0.00,OVC,,0.00,WeatherDisplay:10.37,2013-01-07 16:41:00,
2013-01-07 08:46:00,45.0,43.4,30.26,SW,235,0.0,0.0,94,0.00,OVC,,0.00,WeatherDisplay:10.37,2013-01-07 16:46:00,
2013-01-07 08:51:00,45.1,43.5,30.26,SW,235,0.0,0.0,94,0.00,OVC,,0.00,WeatherDisplay:10.37,2013-01-07 16:51:00,
2013-01-07 08:56:00,45.1,43.2,30.27,SW,225,0.0,0.5,93,0.00,OVC,,0.00,WeatherDisplay:10.37,2013-01-07 16:56:00,
2013-01-07 09:01:00,45.1,43.2,30.27,SSW,205,0.0,0.0,93,0.00,OVC,,0.00,WeatherDisplay:10.37,2013-01-07 17:01:00,
2013-01-07 09:06:00,45.2,43.3,30.28,SSW,207,0.0,0.0,93,0.00,OVC,,0.00,WeatherDisplay:10.37,2013-01-07 17:06:00,
2013-01-07 09:11:00,45.3,43.4,30.28,SSW,207,0.0,0.0,93,0.00,OVC,,0.00,WeatherDisplay:10.37,2013-01-07 17:11:00,
2013-01-07 09:16:00,45.5,43.6,30.28,SSW,205,0.0,0.0,93,0.00,OVC,,0.00,WeatherDisplay:10.37,2013-01-07 17:16:00,
2013-01-07 09:21:00,45.6,43.7,30.29,SW,225,1.1,1.1,93,0.00,OVC,,0.00,WeatherDisplay:10.37,2013-01-07 17:21:00,
2013-01-07 09:26:00,45.6,43.4,30.29,SW,232,0.0,0.0,92,0.00,OVC,,0.00,WeatherDisplay:10.37,2013-01-07 17:26:00,
2013-01-07 09:31:00,45.7,43.5,30.29,SSW,210,1.1,0.0,92,0.00,OVC,,0.00,WeatherDisplay:10.37,2013-01-07 17:31:00,
2013-01-07 09:36:00,45.9,43.7,30.29,SSW,210,0.0,0.0,92,0.00,OVC,,0.00,WeatherDisplay:10.37,2013-01-07 17:36:00,
2013-01-07 09:41:00,46.0,43.8,30.29,SSW,201,0.0,0.0,92,0.00,OVC,,0.00,WeatherDisplay:10.37,2013-01-07 17:41:00,
2013-01-07 09:46:00,46.0,43.5,30.29,ESE,108,0.0,0.0,91,0.00,OVC,,0.00,WeatherDisplay:10.37,2013-01-07 17:46:00,
2013-01-07 09:51:00,46.1,43.6,30.29,ESE,120,0.0,0.0,91,0.00,OVC,,0.00,WeatherDisplay:10.37,2013-01-07 17:51:00,
2013-01-07 09:56:00,46.2,43.7,30.29,SSW,210,0.0,0.1,91,0.00,OVC,,0.00,WeatherDisplay:10.37,2013-01-07 17:56:00,
2013-01-07 10:01:00,46.2,43.7,30.28,SE,139,0.0,0.0,91,0.00,OVC,,0.00,WeatherDisplay:10.37,2013-01-07 18:01:00,
2013-01-07 10:06:00,46.3,43.8,30.28,SE,139,0.0,0.0,91,0.00,OVC,,0.00,WeatherDisplay:10.37,2013-01-07 18:06:00,
2013-01-07 10:11:00,46.3,43.8,30.28,SSE,148,0.0,0.0,91,0.00,OVC,,0.00,WeatherDisplay:10.37,2013-01-07 18:11:00,
2013-01-07 10:16:00,46.4,43.6,30.28,ESE,110,1.1,1.1,90,0.00,OVC,,0.00,WeatherDisplay:10.37,2013-01-07 18:16:00,
2013-01-07 10:21:00,46.6,43.8,30.28,SSE,148,1.1,1.1,90,0.00,OVC,,0.00,WeatherDisplay:10.37,2013-01-07 18:21:00,
2013-01-07 10:26:00,46.7,43.6,30.27,SE,146,0.0,0.0,89,0.00,OVC,,0.00,WeatherDisplay:10.37,2013-01-07 18:26:00,
2013-01-07 10:31:00,46.9,43.8,30.27,SE,146,1.1,0.0,89,0.00,OVC,,0.00,WeatherDisplay:10.37,2013-01-07 18:31:00,
2013-01-07 10:36:00,47.1,43.4,30.26,SSE,158,1.1,1.1,87,0.00,OVC,,0.00,WeatherDisplay:10.37,2013-01-07 18:36:00,
2013-01-07 10:41:00,47.5,44.1,30.25,SSE,164,0.0,0.0,88,0.00,OVC,,0.00,WeatherDisplay:10.37,2013-01-07 18:41:00,
2013-01-07 10:46:00,47.9,44.2,30.25,SSW,195,1.1,1.1,87,0.00,OVC,,0.00,WeatherDisplay:10.37,2013-01-07 18:46:00,
2013-01-07 10:51:00,48.5,44.5,30.25,SE,139,1.1,1.1,86,0.00,OVC,,0.00,WeatherDisplay:10.37,2013-01-07 18:51:00,
2013-01-07 10:56:00,49.1,44.8,30.25,SSE,160,2.3,2.3,85,0.00,OVC,,0.00,WeatherDisplay:10.37,2013-01-07 18:56:00,
2013-01-07 11:01:00,49.4,44.8,30.25,SW,229,3.5,3.5,84,0.00,OVC,,0.00,WeatherDisplay:10.37,2013-01-07 19:01:00,
2013-01-07 11:06:00,49.4,44.8,30.25,SE,132,3.5,3.5,84,0.00,OVC,,0.00,WeatherDisplay:10.37,2013-01-07 19:06:00,
2013-01-07 11:11:00,49.5,44.6,30.25,SSE,148,1.1,1.1,83,0.00,OVC,,0.00,WeatherDisplay:10.37,2013-01-07 19:11:00,
2013-01-07 11:16:00,49.6,44.6,30.25,SW,229,1.1,1.1,83,0.00,OVC,,0.00,WeatherDisplay:10.37,2013-01-07 19:16:00,
2013-01-07 11:21:00,49.5,44.2,30.24,SW,225,1.1,1.1,82,0.00,OVC,,0.00,WeatherDisplay:10.37,2013-01-07 19:21:00,
2013-01-07 11:26:00,49.4,44.1,30.24,South,184,2.3,2.3,82,0.00,OVC,,0.00,WeatherDisplay:10.37,2013-01-07 19:26:00,
2013-01-07 11:31:00,49.3,44.4,30.23,SW,217,0.0,0.0,83,0.00,OVC,,0.00,WeatherDisplay:10.37,2013-01-07 19:31:00,
2013-01-07 11:36:00,49.4,44.5,30.23,WSW,237,1.1,1.1,83,0.00,OVC,,0.00,WeatherDisplay:10.37,2013-01-07 19:36:00,
2013-01-07 11:41:00,49.3,44.4,30.23,SSW,207,1.1,1.1,83,0.00,OVC,,0.00,WeatherDisplay:10.37,2013-01-07 19:41:00,
2013-01-07 11:46:00,49.8,45.2,30.22,SW,232,0.0,0.1,84,0.00,OVC,,0.00,WeatherDisplay:10.37,2013-01-07 19:46:00,
2013-01-07 11:51:00,50.5,45.2,30.21,SW,218,2.0,2.0,82,0.00,BKN,,0.00,WeatherDisplay:10.37,2013-01-07 19:51:00,
2013-01-07 11:56:00,50.8,45.2,30.21,ESE,105,1.1,1.1,81,0.00,BKN,,0.00,WeatherDisplay:10.37,2013-01-07 19:56:00,
2013-01-07 12:01:00,51.1,45.1,30.20,SW,235,2.3,2.3,80,0.00,BKN,,0.00,WeatherDisplay:10.37,2013-01-07 20:01:00,
2013-01-07 12:06:00,51.0,44.7,30.20,SSE,165,2.0,2.0,79,0.00,BKN,,0.00,WeatherDisplay:10.37,2013-01-07 20:06:00,
2013-01-07 12:11:00,50.8,44.5,30.20,SW,226,1.1,0.0,79,0.00,BKN,,0.00,WeatherDisplay:10.37,2013-01-07 20:11:00,
2013-01-07 12:16:00,51.2,44.2,30.20,South,191,1.1,1.1,77,0.00,BKN,,0.00,WeatherDisplay:10.37,2013-01-07 20:16:00,
2013-01-07 12:19:00,51.5,44.2,30.20,SW,214,3.0,3.0,76,0.00,BKN,,0.00,WeatherDisplay:10.37,2013-01-07 20:19:00,
2013-01-07 12:24:00,51.6,43.9,30.20,SW,232,1.1,1.1,75,0.00,BKN,,0.00,WeatherDisplay:10.37,2013-01-07 20:24:00,
2013-01-07 12:29:00,51.8,44.1,30.19,SSW,204,1.1,1.1,75,0.00,BKN,,0.00,WeatherDisplay:10.37,2013-01-07 20:29:00,
2013-01-07 12:34:00,52.0,43.6,30.19,SSW,207,1.1,0.0,73,0.00,SCT,,0.00,WeatherDisplay:10.37,2013-01-07 20:34:00,
2013-01-07 12:39:00,52.1,44.4,30.19,SSW,212,1.1,1.1,75,0.00,SCT,,0.00,WeatherDisplay:10.37,2013-01-07 20:39:00,
2013-01-07 12:44:00,52.4,44.4,30.18,South,181,1.1,1.1,74,0.00,SCT,,0.00,WeatherDisplay:10.37,2013-01-07 20:44:00,
2013-01-07 12:49:00,52.8,43.7,30.19,South,191,2.3,2.3,71,0.00,SCT,,0.00,WeatherDisplay:10.37,2013-01-07 20:49:00,
2013-01-07 12:54:00,53.2,43.7,30.19,WSW,238,1.0,1.0,70,0.00,SCT,,0.00,WeatherDisplay:10.37,2013-01-07 20:54:00,
2013-01-07 12:59:00,53.2,43.3,30.19,SW,215,2.0,2.0,69,0.00,SCT,,0.00,WeatherDisplay:10.37,2013-01-07 20:59:00,
2013-01-07 13:04:00,53.1,43.2,30.19,SSE,150,1.1,1.1,69,0.00,BKN,,0.00,WeatherDisplay:10.37,2013-01-07 21:04:00,
2013-01-07 13:09:00,53.3,43.0,30.20,ESE,115,1.1,1.1,68,0.00,BKN,,0.00,WeatherDisplay:10.37,2013-01-07 21:09:00,
2013-01-07 13:14:00,53.5,43.2,30.20,SW,221,1.1,1.1,68,0.00,BKN,,0.00,WeatherDisplay:10.37,2013-01-07 21:14:00,
2013-01-07 13:19:00,53.4,42.7,30.20,West,259,2.3,2.3,67,0.00,SCT,,0.00,WeatherDisplay:10.37,2013-01-07 21:19:00,
2013-01-07 13:24:00,53.1,42.4,30.20,SW,219,2.3,2.3,67,0.00,SCT,,0.00,WeatherDisplay:10.37,2013-01-07 21:24:00,
2013-01-07 13:29:00,52.8,42.1,30.20,SSW,193,0.0,0.1,67,0.00,SCT,,0.00,WeatherDisplay:10.37,2013-01-07 21:29:00,
2013-01-07 13:34:00,52.7,42.8,30.20,SSW,194,0.0,0.0,69,0.00,BKN,,0.00,WeatherDisplay:10.37,2013-01-07 21:34:00,
2013-01-07 13:39:00,52.6,42.7,30.20,West,269,1.1,1.1,69,0.00,BKN,,0.00,WeatherDisplay:10.37,2013-01-07 21:39:00,
2013-01-07 13:44:00,52.4,42.5,30.21,WSW,255,0.0,0.0,69,0.00,BKN,,0.00,WeatherDisplay:10.37,2013-01-07 21:44:00,
2013-01-07 13:49:00,52.3,42.4,30.21,WSW,255,1.1,0.0,69,0.00,OVC,,0.00,WeatherDisplay:10.37,2013-01-07 21:49:00,
2013-01-07 13:54:00,52.3,42.8,30.20,West,270,0.0,0.6,70,0.00,OVC,,0.00,WeatherDisplay:10.37,2013-01-07 21:54:00,
2013-01-07 13:59:00,52.2,42.7,30.20,West,270,0.0,0.0,70,0.00,OVC,,0.00,WeatherDisplay:10.37,2013-01-07 21:59:00,
2013-01-07 14:04:00,52.1,42.2,30.21,NNW,342,2.3,2.3,69,0.00,OVC,,0.00,WeatherDisplay:10.37,2013-01-07 22:04:00,
2013-01-07 14:09:00,52.0,42.1,30.20,WSW,249,2.3,2.3,69,0.00,OVC,,0.00,WeatherDisplay:10.37,2013-01-07 22:09:00,
2013-01-07 14:14:00,52.1,42.6,30.20,WNW,291,1.1,1.1,70,0.00,OVC,,0.00,WeatherDisplay:10.37,2013-01-07 22:14:00,
2013-01-07 14:19:00,52.1,42.2,30.20,NNE,18,0.0,0.0,69,0.00,OVC,,0.00,WeatherDisplay:10.37,2013-01-07 22:19:00,
2013-01-07 14:24:00,52.2,42.3,30.19,NW,305,1.1,0.0,69,0.00,OVC,,0.00,WeatherDisplay:10.37,2013-01-07 22:24:00,
2013-01-07 14:30:00,52.2,42.0,30.19,NNW,343,1.1,1.1,68,0.00,OVC,,0.00,WeatherDisplay:10.37,2013-01-07 22:30:00,
2013-01-07 14:35:00,52.1,42.2,30.19,WNW,300,0.0,0.0,69,0.00,OVC,,0.00,WeatherDisplay:10.37,2013-01-07 22:35:00,
2013-01-07 14:40:00,52.4,42.5,30.19,West,274,1.1,0.0,69,0.00,OVC,,0.00,WeatherDisplay:10.37,2013-01-07 22:40:00,
2013-01-07 14:45:00,52.5,42.2,30.18,SW,215,1.0,1.0,68,0.00,OVC,,0.00,WeatherDisplay:10.37,2013-01-07 22:45:00,
2013-01-07 14:50:00,52.4,42.5,30.18,SW,214,0.0,0.0,69,0.00,OVC,,0.00,WeatherDisplay:10.37,2013-01-07 22:50:00,
2013-01-07 14:55:00,52.4,42.1,30.18,SW,229,1.1,1.1,68,0.00,OVC,,0.00,WeatherDisplay:10.37,2013-01-07 22:55:00,
2013-01-07 15:00:00,52.4,42.1,30.18,SSW,201,1.1,0.0,68,0.00,OVC,,0.00,WeatherDisplay:10.37,2013-01-07 23:00:00,
2013-01-07 15:05:00,52.6,42.3,30.18,SSE,156,2.0,2.0,68,0.00,OVC,,0.00,WeatherDisplay:10.37,2013-01-07 23:05:00,
2013-01-07 15:10:00,52.8,42.5,30.18,West,277,1.1,1.1,68,0.00,OVC,,0.00,WeatherDisplay:10.37,2013-01-07 23:10:00,
2013-01-07 15:15:00,52.9,42.6,30.17,WSW,238,1.1,1.1,68,0.00,OVC,,0.00,WeatherDisplay:10.37,2013-01-07 23:15:00,
2013-01-07 15:20:00,52.9,42.6,30.17,SW,224,0.0,0.0,68,0.00,OVC,,0.00,WeatherDisplay:10.37,2013-01-07 23:20:00,
2013-01-07 15:25:00,53.0,42.7,30.17,West,278,1.1,0.0,68,0.00,OVC,,0.00,WeatherDisplay:10.37,2013-01-07 23:25:00,
2013-01-07 15:30:00,53.3,42.6,30.17,West,278,1.1,0.0,67,0.00,OVC,,0.00,WeatherDisplay:10.37,2013-01-07 23:30:00,
2013-01-07 15:35:00,53.5,42.8,30.17,West,278,0.0,0.0,67,0.00,OVC,,0.00,WeatherDisplay:10.37,2013-01-07 23:35:00,
2013-01-07 15:40:00,53.9,43.2,30.17,West,278,0.0,0.0,67,0.00,OVC,,0.00,WeatherDisplay:10.37,2013-01-07 23:40:00,
2013-01-07 15:45:00,53.9,42.0,30.17,West,276,0.0,0.0,64,0.00,OVC,,0.00,WeatherDisplay:10.37,2013-01-07 23:45:00,
2013-01-07 15:50:00,53.5,42.0,30.18,WSW,257,0.0,0.0,65,0.00,BKN,,0.00,WeatherDisplay:10.37,2013-01-07 23:50:00,
2013-01-07 15:55:00,53.1,42.0,30.18,SSW,198,1.0,1.0,66,0.00,BKN,,0.00,WeatherDisplay:10.37,2013-01-07 23:55:00,
2013-01-07 16:00:00,52.8,41.7,30.18,SW,225,0.0,0.0,66,0.00,BKN,,0.00,WeatherDisplay:10.37,2013-01-08 00:00:00,
2013-01-07 16:05:00,52.7,42.0,30.18,South,169,0.0,0.0,67,0.00,FEW,,0.00,WeatherDisplay:10.37,2013-01-08 00:05:00,
2013-01-07 16:10:00,52.6,41.9,30.18,SW,236,2.3,0.0,67,0.00,FEW,,0.00,WeatherDisplay:10.37,2013-01-08 00:10:00,
2013-01-07 16:15:00,52.5,42.2,30.18,SSW,212,0.0,0.0,68,0.00,FEW,,0.00,WeatherDisplay:10.37,2013-01-08 00:15:00,
2013-01-07 16:20:00,52.3,42.0,30.18,WSW,256,2.3,2.3,68,0.00,FEW,,0.00,WeatherDisplay:10.37,2013-01-08 00:20:00,
2013-01-07 16:25:00,52.0,42.1,30.18,WSW,256,0.0,0.0,69,0.00,FEW,,0.00,WeatherDisplay:10.37,2013-01-08 00:25:00,
2013-01-07 16:30:00,51.8,41.9,30.19,South,188,0.0,0.0,69,0.00,FEW,,0.00,WeatherDisplay:10.37,2013-01-08 00:30:00,
2013-01-07 16:35:00,51.7,41.9,30.19,South,188,0.0,0.0,69,0.00,BKN,,0.00,WeatherDisplay:10.37,2013-01-08 00:35:00,
2013-01-07 16:40:00,51.5,42.0,30.19,South,188,0.0,0.0,70,0.00,BKN,,0.00,WeatherDisplay:10.37,2013-01-08 00:40:00,
2013-01-07 16:45:00,51.3,41.8,30.19,SW,225,0.0,0.0,70,0.00,BKN,,0.00,WeatherDisplay:10.37,2013-01-08 00:45:00,
2013-01-07 16:50:00,51.1,41.7,30.19,SW,225,1.1,0.0,70,0.00,SCT,,0.00,WeatherDisplay:10.37,2013-01-08 00:50:00,
2013-01-07 16:55:00,50.9,41.8,30.19,SW,225,0.0,0.0,71,0.00,SCT,,0.00,WeatherDisplay:10.37,2013-01-08 00:55:00,
2013-01-07 17:00:00,50.6,41.5,30.19,SW,225,0.0,0.0,71,0.00,SCT,,0.00,WeatherDisplay:10.37,2013-01-08 01:00:00,
2013-01-07 17:05:00,50.4,41.7,30.19,SW,225,0.0,0.0,72,0.00,CLR,,0.00,WeatherDisplay:10.37,2013-01-08 01:05:00,
2013-01-07 17:10:00,50.2,41.9,30.19,SW,225,0.0,0.0,73,0.00,CLR,,0.00,WeatherDisplay:10.37,2013-01-08 01:10:00,
2013-01-07 17:15:00,49.9,41.9,30.19,SW,225,0.0,0.0,74,0.00,CLR,,0.00,WeatherDisplay:10.37,2013-01-08 01:15:00,
2013-01-07 17:20:00,49.8,41.8,30.19,SW,225,0.0,0.0,74,0.00,CLR,,0.00,WeatherDisplay:10.37,2013-01-08 01:20:00,
2013-01-07 17:25:00,49.6,41.7,30.19,SW,225,0.0,0.0,74,0.00,CLR,,0.00,WeatherDisplay:10.37,2013-01-08 01:25:00,
2013-01-07 17:30:00,49.3,41.4,30.19,SW,225,0.0,0.0,74,0.00,CLR,,0.00,WeatherDisplay:10.37,2013-01-08 01:30:00,
2013-01-07 17:35:00,49.1,41.9,30.19,SW,225,0.0,0.0,76,0.00,SCT,,0.00,WeatherDisplay:10.37,2013-01-08 01:35:00,
2013-01-07 17:40:00,49.1,42.5,30.19,SW,225,0.0,0.0,78,0.00,SCT,,0.00,WeatherDisplay:10.37,2013-01-08 01:40:00,
2013-01-07 17:45:00,49.1,42.9,30.19,SW,225,0.0,0.0,79,0.00,SCT,,0.00,WeatherDisplay:10.37,2013-01-08 01:45:00,
2013-01-07 17:50:00,49.1,43.2,30.19,SW,225,0.0,0.0,80,0.00,SCT,,0.00,WeatherDisplay:10.37,2013-01-08 01:50:00,
2013-01-07 17:55:00,49.0,43.1,30.20,SW,225,0.0,0.0,80,0.00,SCT,,0.00,WeatherDisplay:10.37,2013-01-08 01:55:00,
2013-01-07 18:00:00,49.0,43.1,30.19,NW,315,0.0,0.0,80,0.00,SCT,,0.00,WeatherDisplay:10.37,2013-01-08 02:00:00,
2013-01-07 18:05:00,49.0,43.1,30.19,NW,315,0.0,0.0,80,0.00,OVC,,0.00,WeatherDisplay:10.37,2013-01-08 02:05:00,
2013-01-07 18:10:00,48.9,43.3,30.20,NW,315,0.0,0.0,81,0.00,OVC,,0.00,WeatherDisplay:10.37,2013-01-08 02:10:00,
2013-01-07 18:15:00,48.8,43.2,30.19,NW,315,0.0,0.0,81,0.00,OVC,,0.00,WeatherDisplay:10.37,2013-01-08 02:15:00,
2013-01-07 18:20:00,48.7,43.1,30.19,NW,315,0.0,0.0,81,0.00,OVC,,0.00,WeatherDisplay:10.37,2013-01-08 02:20:00,
2013-01-07 18:25:00,48.6,43.0,30.19,NW,314,0.0,0.0,81,0.00,OVC,,0.00,WeatherDisplay:10.37,2013-01-08 02:25:00,
2013-01-07 18:30:00,48.5,43.3,30.19,NW,315,0.0,0.0,82,0.00,OVC,,0.00,WeatherDisplay:10.37,2013-01-08 02:30:00,
2013-01-07 18:35:00,48.4,43.2,30.19,NW,315,0.0,0.0,82,0.00,OVC,,0.00,WeatherDisplay:10.37,2013-01-08 02:35:00,
2013-01-07 18:40:00,48.3,43.4,30.18,NW,315,0.0,0.0,83,0.00,OVC,,0.00,WeatherDisplay:10.37,2013-01-08 02:40:00,
2013-01-07 18:45:00,48.3,43.4,30.18,NW,314,0.0,0.0,83,0.00,OVC,,0.00,WeatherDisplay:10.37,2013-01-08 02:45:00,
2013-01-07 18:50:00,48.1,43.2,30.18,NNW,335,1.1,1.1,83,0.00,OVC,,0.00,WeatherDisplay:10.37,2013-01-08 02:50:00,
2013-01-07 18:55:00,48.1,42.9,30.17,NNW,336,0.0,0.0,82,0.00,OVC,,0.00,WeatherDisplay:10.37,2013-01-08 02:55:00,
2013-01-07 19:00:00,48.0,42.8,30.17,NNW,335,0.0,0.0,82,0.00,OVC,,0.00,WeatherDisplay:10.37,2013-01-08 03:00:00,
2013-01-07 19:06:00,47.7,42.5,30.17,NNW,335,1.1,0.0,82,0.00,OVC,,0.00,WeatherDisplay:10.37,2013-01-08 03:06:00,
2013-01-07 19:11:00,47.5,42.3,30.17,NNW,335,0.0,0.0,82,0.00,OVC,,0.00,WeatherDisplay:10.37,2013-01-08 03:11:00,
2013-01-07 19:16:00,47.1,41.9,30.17,NNW,336,0.0,0.0,82,0.00,OVC,,0.00,WeatherDisplay:10.37,2013-01-08 03:16:00,
2013-01-07 19:21:00,46.7,41.8,30.17,NNW,336,0.0,0.0,83,0.00,OVC,,0.00,WeatherDisplay:10.37,2013-01-08 03:21:00,
2013-01-07 19:26:00,46.1,41.2,30.17,NNW,336,0.0,0.0,83,0.00,OVC,,0.00,WeatherDisplay:10.37,2013-01-08 03:26:00,
2013-01-07 19:31:00,45.6,41.0,30.17,NNW,336,0.0,0.0,84,0.00,FEW,,0.00,WeatherDisplay:10.37,2013-01-08 03:31:00,
2013-01-07 19:36:00,45.2,41.0,30.17,NNW,335,0.0,0.0,85,0.00,FEW,,0.00,WeatherDisplay:10.37,2013-01-08 03:36:00,
2013-01-07 19:41:00,44.8,40.9,30.17,NNW,336,0.0,0.0,86,0.00,FEW,,0.00,WeatherDisplay:10.37,2013-01-08 03:41:00,
2013-01-07 19:46:00,44.4,40.5,30.17,NNW,335,0.0,0.0,86,0.00,CLR,,0.00,WeatherDisplay:10.37,2013-01-08 03:46:00,
2013-01-07 19:51:00,44.0,40.4,30.17,NNW,335,0.0,0.0,87,0.00,CLR,,0.00,WeatherDisplay:10.37,2013-01-08 03:51:00,
2013-01-07 19:56:00,43.7,40.4,30.17,NNW,336,0.0,0.0,88,0.00,CLR,,0.00,WeatherDisplay:10.37,2013-01-08 03:56:00,
2013-01-07 20:01:00,43.5,40.2,30.17,NNW,336,0.0,0.0,88,0.00,CLR,,0.00,WeatherDisplay:10.37,2013-01-08 04:01:00,
2013-01-07 20:06:00,43.2,40.2,30.17,NNW,335,0.0,0.0,89,0.00,CLR,,0.00,WeatherDisplay:10.37,2013-01-08 04:06:00,
2013-01-07 20:11:00,42.9,39.9,30.17,NNW,335,0.0,0.0,89,0.00,CLR,,0.00,WeatherDisplay:10.37,2013-01-08 04:11:00,
2013-01-07 20:16:00,42.7,39.7,30.17,NNW,336,0.0,0.0,89,0.00,CLR,,0.00,WeatherDisplay:10.37,2013-01-08 04:16:00,
2013-01-07 20:21:00,42.8,40.4,30.18,NNW,335,0.0,0.0,91,0.00,CLR,,0.00,WeatherDisplay:10.37,2013-01-08 04:21:00,
2013-01-07 20:26:00,42.9,40.5,30.18,NNW,335,0.0,0.0,91,0.00,CLR,,0.00,WeatherDisplay:10.37,2013-01-08 04:26:00,
2013-01-07 20:31:00,42.7,40.3,30.18,NNW,336,0.0,0.0,91,0.00,CLR,,0.00,WeatherDisplay:10.37,2013-01-08 04:31:00,
2013-01-07 20:36:00,42.4,40.0,30.18,NNW,335,0.0,0.0,91,0.00,CLR,,0.00,WeatherDisplay:10.37,2013-01-08 04:36:00,
2013-01-07 20:41:00,42.1,39.7,30.18,NNW,336,0.0,0.0,91,0.00,CLR,,0.00,WeatherDisplay:10.37,2013-01-08 04:41:00,
2013-01-07 20:46:00,41.7,39.3,30.19,NNW,335,0.0,0.0,91,0.00,CLR,,0.00,WeatherDisplay:10.37,2013-01-08 04:46:00,
2013-01-07 20:51:00,41.3,38.9,30.19,NNW,335,0.0,0.0,91,0.00,CLR,,0.00,WeatherDisplay:10.37,2013-01-08 04:51:00,
2013-01-07 20:56:00,41.0,38.6,30.19,NNW,336,0.0,0.0,91,0.00,CLR,,0.00,WeatherDisplay:10.37,2013-01-08 04:56:00,
2013-01-07 21:02:00,40.8,38.7,30.19,NNW,335,0.0,0.0,92,0.00,CLR,,0.00,WeatherDisplay:10.37,2013-01-08 05:02:00,
2013-01-07 21:03:00,40.8,38.7,30.19,NNW,336,0.0,0.0,92,0.00,CLR,,0.00,WeatherDisplay:10.37,2013-01-08 05:03:00,
2013-01-07 21:04:00,40.8,38.7,30.19,NNW,336,0.0,0.0,92,0.00,CLR,,0.00,WeatherDisplay:10.37,2013-01-08 05:04:00,
2013-01-07 21:09:00,40.6,38.5,30.19,NNW,336,0.0,0.0,92,0.00,CLR,,0.00,WeatherDisplay:10.37,2013-01-08 05:09:00,
2013-01-07 21:14:00,40.3,37.9,30.19,NNW,336,0.0,0.0,91,0.00,CLR,,0.00,WeatherDisplay:10.37,2013-01-08 05:14:00,
2013-01-07 21:19:00,40.1,37.7,30.19,NNW,335,0.0,0.0,91,0.00,CLR,,0.00,WeatherDisplay:10.37,2013-01-08 05:19:00,
2013-01-07 21:24:00,40.2,38.3,30.19,NNW,335,0.0,0.0,93,0.00,CLR,,0.00,WeatherDisplay:10.37,2013-01-08 05:24:00,
2013-01-07 21:29:00,40.1,38.2,30.19,NNW,336,0.0,0.0,93,0.00,CLR,,0.00,WeatherDisplay:10.37,2013-01-08 05:29:00,
2013-01-07 21:34:00,40.0,38.1,30.18,NNW,335,0.0,0.0,93,0.00,CLR,,0.00,WeatherDisplay:10.37,2013-01-08 05:34:00,
2013-01-07 21:39:00,39.8,37.9,30.18,NNW,336,0.0,0.0,93,0.00,CLR,,0.00,WeatherDisplay:10.37,2013-01-08 05:39:00,
2013-01-07 21:44:00,39.7,37.8,30.19,NNW,335,0.0,0.0,93,0.00,CLR,,0.00,WeatherDisplay:10.37,2013-01-08 05:44:00,
2013-01-07 21:49:00,39.8,38.2,30.18,NNW,336,0.0,0.0,94,0.00,CLR,,0.00,WeatherDisplay:10.37,2013-01-08 05:49:00,
2013-01-07 21:54:00,39.8,38.2,30.19,NNW,335,0.0,0.0,94,0.00,CLR,,0.00,WeatherDisplay:10.37,2013-01-08 05:54:00,
2013-01-07 21:59:00,40.0,38.4,30.19,NNW,335,0.0,0.0,94,0.00,CLR,,0.00,WeatherDisplay:10.37,2013-01-08 05:59:00,
2013-01-07 22:04:00,39.9,38.3,30.19,NNW,335,0.0,0.0,94,0.00,CLR,,0.00,WeatherDisplay:10.37,2013-01-08 06:04:00,
2013-01-07 22:09:00,39.7,38.1,30.19,NNW,335,0.0,0.0,94,0.00,CLR,,0.00,WeatherDisplay:10.37,2013-01-08 06:09:00,
2013-01-07 22:14:00,39.5,37.9,30.19,NNW,335,0.0,0.0,94,0.00,CLR,,0.00,WeatherDisplay:10.37,2013-01-08 06:14:00,
2013-01-07 22:19:00,39.3,37.7,30.19,NNW,335,0.0,0.0,94,0.00,CLR,,0.00,WeatherDisplay:10.37,2013-01-08 06:19:00,
2013-01-07 22:24:00,39.1,37.5,30.19,NNW,335,0.0,0.0,94,0.00,CLR,,0.00,WeatherDisplay:10.37,2013-01-08 06:24:00,
2013-01-07 22:29:00,38.9,37.3,30.20,NNW,335,0.0,0.0,94,0.00,CLR,,0.00,WeatherDisplay:10.37,2013-01-08 06:29:00,
2013-01-07 22:34:00,38.7,37.1,30.20,NNW,335,0.0,0.0,94,0.00,CLR,,0.00,WeatherDisplay:10.37,2013-01-08 06:34:00,
2013-01-07 22:39:00,38.6,37.0,30.19,NNW,336,0.0,0.0,94,0.00,CLR,,0.00,WeatherDisplay:10.37,2013-01-08 06:39:00,
2013-01-07 22:44:00,38.5,36.9,30.20,NNW,335,0.0,0.0,94,0.00,CLR,,0.00,WeatherDisplay:10.37,2013-01-08 06:44:00,
2013-01-07 22:49:00,38.4,36.8,30.20,NNW,335,0.0,0.0,94,0.00,CLR,,0.00,WeatherDisplay:10.37,2013-01-08 06:49:00,
2013-01-07 22:54:00,38.9,37.6,30.20,NNW,335,0.0,0.0,95,0.00,CLR,,0.00,WeatherDisplay:10.37,2013-01-08 06:54:00,
2013-01-07 22:59:00,39.0,37.7,30.20,NNW,336,0.0,0.0,95,0.00,CLR,,0.00,WeatherDisplay:10.37,2013-01-08 06:59:00,
2013-01-07 23:04:00,38.7,37.1,30.20,NNW,336,0.0,0.0,94,0.00,CLR,,0.00,WeatherDisplay:10.37,2013-01-08 07:04:00,
2013-01-07 23:09:00,38.5,37.2,30.20,NNW,336,0.0,0.0,95,0.00,CLR,,0.00,WeatherDisplay:10.37,2013-01-08 07:09:00,
2013-01-07 23:14:00,38.4,37.1,30.21,NNW,336,0.0,0.0,95,0.00,CLR,,0.00,WeatherDisplay:10.37,2013-01-08 07:14:00,
2013-01-07 23:19:00,38.3,37.0,30.20,NNW,336,0.0,0.0,95,0.00,CLR,,0.00,WeatherDisplay:10.37,2013-01-08 07:19:00,
2013-01-07 23:24:00,38.3,37.0,30.20,NNW,336,0.0,0.0,95,0.00,CLR,,0.00,WeatherDisplay:10.37,2013-01-08 07:24:00,
2013-01-07 23:29:00,38.1,36.8,30.20,NNW,335,0.0,0.0,95,0.00,CLR,,0.00,WeatherDisplay:10.37,2013-01-08 07:29:00,
2013-01-07 23:34:00,37.9,36.6,30.20,NNW,336,0.0,0.0,95,0.00,CLR,,0.00,WeatherDisplay:10.37,2013-01-08 07:34:00,
2013-01-07 23:39:00,37.7,36.4,30.20,NNW,335,0.0,0.0,95,0.00,CLR,,0.00,WeatherDisplay:10.37,2013-01-08 07:39:00,
2013-01-07 23:44:00,37.6,36.3,30.19,NNW,335,0.0,0.0,95,0.00,CLR,,0.00,WeatherDisplay:10.37,2013-01-08 07:44:00,
2013-01-07 23:49:00,37.5,36.2,30.19,NNW,335,0.0,0.0,95,0.00,CLR,,0.00,WeatherDisplay:10.37,2013-01-08 07:49:00,
2013-01-07 23:54:00,37.3,36.0,30.19,NNW,335,0.0,0.0,95,0.00,CLR,,0.00,WeatherDisplay:10.37,2013-01-08 07:54:00,
2013-01-07 23:59:00,37.1,35.8,30.19,NNW,336,0.0,0.0,95,0.00,CLR,,0.00,WeatherDisplay:10.37,2013-01-08 07:59:00,